This is the latest recevied weather packets stored in our database for station/object AI5YA-13. If no packets are shown the sender has not sent any weather packets the latest 10 day(s).
| Time | Temp. | Humidity | Pressure | Rain* | Wind** | Luminosity | Snow |
|---|---|---|---|---|---|---|---|
| 1777903202 | 19.44° C | 59% | 1012.3 hPa | 0 mm | - | 45 W/m² | - |
| 1777902898 | 18.89° C | 61% | 1012.5 hPa | 0 mm | - | 44 W/m² | - |
| 1777902595 | 18.33° C | 62% | 1012.8 hPa | 0 mm | - | 140 W/m² | - |
| 1777902292 | 18.33° C | 63% | 1012.9 hPa | 0 mm | - | 90 W/m² | - |
| 1777901989 | 17.78° C | 64% | 1012.5 hPa | 0 mm | - | 123 W/m² | - |
| 1777901688 | 17.22° C | 65% | 1012.4 hPa | 0 mm | - | 118 W/m² | - |
| 1777901384 | 17.22° C | 66% | 1012.3 hPa | 0 mm | - | 93 W/m² | - |
| 1777901082 | 16.67° C | 67% | 1012.4 hPa | 0 mm | - | 65 W/m² | - |
| 1777900779 | 16.11° C | 69% | 1012.4 hPa | 0 mm | - | 72 W/m² | - |
| 1777900477 | 16.11° C | 69% | 1012.2 hPa | 0 mm | - | 50 W/m² | - |
| 1777900173 | 16.11° C | 70% | 1012 hPa | 0 mm | - | 55 W/m² | - |
| 1777899870 | 15.56° C | 71% | 1012.1 hPa | 0 mm | - | 60 W/m² | - |
| 1777899566 | 15.56° C | 72% | 1012 hPa | 0 mm | - | 49 W/m² | - |
| 1777899264 | 15° C | 73% | 1012.1 hPa | 0 mm | - | 37 W/m² | - |
| 1777898961 | 15° C | 73% | 1012.2 hPa | 0 mm | - | 25 W/m² | - |
| 1777898659 | 15° C | 73% | 1012 hPa | 0 mm | - | 21 W/m² | - |
| 1777898355 | 15° C | 73% | 1011.7 hPa | 0 mm | - | 19 W/m² | - |
| 1777898054 | 15° C | 73% | 1011.9 hPa | 0 mm | - | 16 W/m² | - |
| 1777897749 | 15° C | 73% | 1012 hPa | 0 mm | - | 16 W/m² | - |
| 1777897445 | 15° C | 73% | 1011.7 hPa | 0 mm | - | 11 W/m² | - |
| 1777897142 | 15° C | 73% | 1011.7 hPa | 0 mm | - | 9 W/m² | - |
| 1777896838 | 15° C | 73% | 1011.7 hPa | 0 mm | - | 6 W/m² | - |
| 1777896535 | 15° C | 73% | 1011.4 hPa | 0 mm | - | 3 W/m² | - |
| 1777896232 | 14.44° C | 74% | 1011.4 hPa | 0 mm | - | 1 W/m² | - |
| 1777895930 | 15° C | 73% | 1011.4 hPa | 0 mm | - | 0 W/m² | - |
* Rain latest hour (hover to see other rain measurements)
** Current wind speed in m/s (hover to see current wind gust speed)